| time (UTC) | temp F | wind direction | speed MPH | gust MPH | rain 1hr in | rain 24hr in | rain mn in | humidity % | barometer mb |
| 20260906101704 | 71 | 302 | 6.0 | 15.0 | 0.00 | 0.00 | 0.00 | 46 | 1031.5 |
| 20260906101204 | 72 | 2 | 8.0 | 13.0 | 0.00 | 0.00 | 0.00 | 45 | 1031.6 |
| 20260906100706 | 71 | 344 | 7.0 | 17.0 | 0.00 | 0.00 | 0.00 | 46 | 1031.4 |
| 20260906100205 | 71 | 331 | 8.0 | 14.0 | 0.00 | 0.00 | 0.00 | 45 | 1031.5 |
| 20260906095705 | 72 | 341 | 9.0 | 18.0 | 0.00 | 0.00 | 0.00 | 46 | 1031.5 |
| 20260906095207 | 72 | 341 | 8.0 | 13.0 | 0.00 | 0.00 | 0.00 | 48 | 1031.5 |
| 20260906094205 | 71 | 287 | 12.0 | 22.0 | 0.00 | 0.00 | 0.00 | 48 | 1031.4 |
| 20260906093705 | 71 | 352 | 8.0 | 16.0 | 0.00 | 0.00 | 0.00 | 47 | 1031.5 |
| 20260906093204 | 71 | 356 | 8.0 | 15.0 | 0.00 | 0.00 | 0.00 | 48 | 1031.4 |
| 20260906092705 | 70 | 349 | 6.0 | 14.0 | 0.00 | 0.00 | 0.00 | 50 | 1031.7 |
| 20260906091705 | 70 | 336 | 7.0 | 16.0 | 0.00 | 0.00 | 0.00 | 48 | 1031.6 |
| 20260906091205 | 70 | 347 | 7.0 | 13.0 | 0.00 | 0.00 | 0.00 | 49 | 1031.7 |
| 20260906090707 | 70 | 345 | 5.0 | 12.0 | 0.00 | 0.00 | 0.00 | 49 | 1031.6 |
| 20260906085206 | 71 | 292 | 9.0 | 16.0 | 0.00 | 0.00 | 0.00 | 49 | 1031.6 |
| 20260906084704 | 70 | 356 | 7.0 | 14.0 | 0.00 | 0.00 | 0.00 | 50 | 1031.6 |
| 20260906084205 | 70 | 289 | 7.0 | 15.0 | 0.00 | 0.00 | 0.00 | 50 | 1031.4 |
| 20260906083704 | 70 | 353 | 6.0 | 12.0 | 0.00 | 0.00 | 0.00 | 51 | 1031.6 |
| 20260906082704 | 69 | 294 | 7.0 | 16.0 | 0.00 | 0.00 | 0.00 | 52 | 1031.5 |
| 20260906082205 | 69 | 349 | 3.0 | 15.0 | 0.00 | 0.00 | 0.00 | 53 | 1031.5 |
| 20260906081204 | 69 | 350 | 6.0 | 10.0 | 0.00 | 0.00 | 0.00 | 53 | 1031.5 |
| 20260906080704 | 69 | 286 | 6.0 | 14.0 | 0.00 | 0.00 | 0.00 | 52 | 1031.5 |
| 20260906080205 | 69 | 331 | 5.0 | 10.0 | 0.00 | 0.00 | 0.00 | 54 | 1031.5 |
| 20260906075705 | 68 | 358 | 6.0 | 10.0 | 0.00 | 0.00 | 0.00 | 54 | 1031.5 |
| 20260906075205 | 68 | 305 | 6.0 | 13.0 | 0.00 | 0.00 | 0.00 | 54 | 1031.4 |
| 20260906074706 | 68 | 335 | 6.0 | 14.0 | 0.00 | 0.00 | 0.00 | 55 | 1031.4 |
| 20260906073706 | 67 | 353 | 7.0 | 14.0 | 0.00 | 0.00 | 0.00 | 55 | 1031.1 |
| 20260906072705 | 67 | 356 | 5.0 | 12.0 | 0.00 | 0.00 | 0.00 | 55 | 1031.2 |
| 20260906072205 | 67 | 334 | 7.0 | 13.0 | 0.00 | 0.00 | 0.00 | 56 | 1031.0 |
| 20260906070206 | 65 | 346 | 4.0 | 10.0 | 0.00 | 0.01 | 0.00 | 60 | 1031.0 |
| 20260906065705 | 65 | 324 | 5.0 | 13.0 | 0.00 | 0.01 | 0.00 | 59 | 1030.9 |
| 20260906065204 | 65 | 318 | 6.0 | 14.0 | 0.00 | 0.01 | 0.00 | 61 | 1031.1 |
| 20260906064704 | 64 | 345 | 6.0 | 14.0 | 0.00 | 0.01 | 0.00 | 61 | 1030.9 |
| 20260906063206 | 64 | 331 | 6.0 | 17.0 | 0.00 | 0.01 | 0.00 | 62 | 1030.7 |
| 20260906062705 | 63 | 322 | 4.0 | 13.0 | 0.00 | 0.01 | 0.00 | 64 | 1030.8 |
| 20260906062205 | 63 | 331 | 6.0 | 12.0 | 0.00 | 0.01 | 0.00 | 65 | 1030.9 |
| 20260906061705 | 62 | 332 | 4.0 | 8.0 | 0.00 | 0.01 | 0.00 | 66 | 1030.6 |
| 20260906061204 | 61 | 306 | 2.0 | 7.0 | 0.00 | 0.01 | 0.00 | 67 | 1030.7 |
| 20260906060704 | 61 | 342 | 3.0 | 13.0 | 0.00 | 0.01 | 0.00 | 68 | 1030.6 |
| 20260906055704 | 59 | 296 | 5.0 | 10.0 | 0.00 | 0.01 | 0.00 | 71 | 1030.5 |
| 20260906055204 | 58 | 297 | 6.0 | 12.0 | 0.00 | 0.01 | 0.00 | 72 | 1030.4 |
| 20260906054704 | 57 | 308 | 3.0 | 10.0 | 0.00 | 0.01 | 0.00 | 72 | 1030.5 |
| 20260906054204 | 57 | 298 | 6.0 | 10.0 | 0.00 | 0.01 | 0.00 | 72 | 1030.5 |
| 20260906053704 | 56 | 291 | 3.0 | 8.0 | 0.00 | 0.01 | 0.00 | 73 | 1030.3 |
| 20260906053204 | 56 | 288 | 4.0 | 7.0 | 0.00 | 0.01 | 0.00 | 73 | 1030.5 |
| 20260906052704 | 55 | 292 | 4.0 | 7.0 | 0.00 | 0.01 | 0.00 | 73 | 1030.3 |
| 20260906052206 | 55 | 278 | 3.0 | 6.0 | 0.00 | 0.01 | 0.00 | 73 | 1030.4 |
| 20260906051204 | 54 | 264 | 2.0 | 3.0 | 0.00 | 0.01 | 0.00 | 74 | 1030.2 |
| 20260906050704 | 54 | 264 | 2.0 | 3.0 | 0.00 | 0.01 | 0.00 | 73 | 1030.1 |
| 20260906050204 | 54 | 269 | 3.0 | 5.0 | 0.00 | 0.01 | 0.00 | 73 | 1029.8 |
| 20260906045704 | 54 | 236 | 1.0 | 2.0 | 0.00 | 0.01 | 0.00 | 72 | 1029.8 |
| 20260906045204 | 54 | 43 | 1.0 | 2.0 | 0.00 | 0.01 | 0.00 | 72 | 1029.9 |
| 20260906044704 | 54 | 264 | 1.0 | 3.0 | 0.00 | 0.01 | 0.00 | 71 | 1029.9 |
| 20260906044205 | 54 | 267 | 2.0 | 3.0 | 0.00 | 0.01 | 0.00 | 71 | 1029.8 |
| 20260906043704 | 55 | 270 | 1.0 | 2.0 | 0.00 | 0.01 | 0.00 | 71 | 1029.9 |
| 20260906042706 | 55 | 56 | 1.0 | 2.0 | 0.00 | 0.01 | 0.00 | 70 | 1029.6 |
| 20260906042204 | 55 | 0 | 1.0 | 6.0 | 0.00 | 0.01 | 0.00 | 70 | 1029.6 |
| 20260906041704 | 55 | 287 | 1.0 | 6.0 | 0.00 | 0.01 | 0.00 | 70 | 1029.8 |
| 20260906041204 | 55 | 323 | 2.0 | 6.0 | 0.00 | 0.01 | 0.00 | 69 | 1029.5 |
| 20260906040704 | 56 | 289 | 2.0 | 5.0 | 0.00 | 0.01 | 0.00 | 69 | 1029.4 |
| 20260906040205 | 56 | 288 | 3.0 | 6.0 | 0.00 | 0.01 | 0.00 | 69 | 1029.4 |
| 20260906035705 | 56 | 270 | 3.0 | 8.0 | 0.00 | 0.01 | 0.00 | 69 | 1029.4 |
| 20260906033205 | 56 | 269 | 4.0 | 7.0 | 0.00 | 0.01 | 0.00 | 69 | 1029.4 |
| 20260906032704 | 56 | 279 | 4.0 | 6.0 | 0.00 | 0.01 | 0.00 | 69 | 1029.2 |
| 20260906032206 | 56 | 280 | 4.0 | 7.0 | 0.00 | 0.01 | 0.00 | 70 | 1029.1 |
| 20260906031704 | 56 | 268 | 3.0 | 6.0 | 0.00 | 0.01 | 0.00 | 70 | 1029.2 |
| 20260906031204 | 56 | 258 | 3.0 | 5.0 | 0.00 | 0.01 | 0.00 | 70 | 1029.1 |
| 20260906030704 | 56 | 273 | 4.0 | 7.0 | 0.00 | 0.01 | 0.00 | 70 | 1028.9 |
| 20260906030204 | 56 | 285 | 3.0 | 6.0 | 0.00 | 0.01 | 0.00 | 70 | 1029.0 |
| 20260906025705 | 55 | 268 | 4.0 | 6.0 | 0.00 | 0.01 | 0.00 | 70 | 1028.9 |
| 20260906025205 | 55 | 280 | 4.0 | 6.0 | 0.00 | 0.01 | 0.00 | 70 | 1028.9 |
| 20260906024704 | 55 | 275 | 3.0 | 5.0 | 0.00 | 0.01 | 0.00 | 70 | 1028.8 |
| 20260906024204 | 55 | 279 | 3.0 | 5.0 | 0.00 | 0.01 | 0.00 | 69 | 1028.6 |
| 20260906023704 | 56 | 264 | 2.0 | 3.0 | 0.00 | 0.01 | 0.00 | 68 | 1028.6 |
| 20260906023204 | 56 | 240 | 2.0 | 3.0 | 0.00 | 0.01 | 0.00 | 68 | 1028.7 |
| 20260906022204 | 56 | 273 | 2.0 | 3.0 | 0.00 | 0.01 | 0.00 | 68 | 1028.7 |
| 20260906020705 | 57 | 323 | 2.0 | 3.0 | 0.00 | 0.01 | 0.00 | 68 | 1028.7 |
| 20260906020204 | 57 | 353 | 1.0 | 3.0 | 0.00 | 0.01 | 0.00 | 67 | 1028.5 |
| 20260906015205 | 58 | 344 | 1.0 | 5.0 | 0.00 | 0.01 | 0.00 | 67 | 1028.4 |
| 20260906014704 | 58 | 327 | 2.0 | 5.0 | 0.00 | 0.01 | 0.00 | 67 | 1028.5 |
| 20260906014204 | 58 | 353 | 2.0 | 5.0 | 0.00 | 0.01 | 0.00 | 66 | 1028.5 |
| 20260906013704 | 58 | 283 | 2.0 | 5.0 | 0.00 | 0.01 | 0.00 | 66 | 1028.6 |
| 20260906013204 | 58 | 286 | 2.0 | 5.0 | 0.00 | 0.01 | 0.00 | 65 | 1028.5 |
| 20260906012705 | 58 | 293 | 1.0 | 5.0 | 0.00 | 0.01 | 0.00 | 65 | 1028.3 |
| 20260906012204 | 59 | 274 | 2.0 | 5.0 | 0.00 | 0.01 | 0.00 | 65 | 1028.2 |
| 20260906011705 | 59 | 295 | 3.0 | 6.0 | 0.00 | 0.01 | 0.00 | 65 | 1028.1 |
| 20260906011204 | 59 | 280 | 3.0 | 5.0 | 0.00 | 0.01 | 0.00 | 65 | 1028.1 |
| 20260906010705 | 59 | 273 | 4.0 | 6.0 | 0.00 | 0.01 | 0.00 | 65 | 1028.1 |
| 20260906010204 | 59 | 290 | 5.0 | 7.0 | 0.00 | 0.01 | 0.00 | 65 | 1028.1 |
| 20260906005704 | 59 | 290 | 3.0 | 6.0 | 0.00 | 0.01 | 0.00 | 66 | 1028.0 |
| 20260906005204 | 59 | 283 | 3.0 | 5.0 | 0.00 | 0.01 | 0.00 | 66 | 1028.0 |
| 20260906004705 | 59 | 283 | 3.0 | 6.0 | 0.00 | 0.01 | 0.00 | 66 | 1028.0 |
| 20260906003704 | 58 | 279 | 3.0 | 5.0 | 0.00 | 0.01 | 0.00 | 68 | 1027.9 |
| 20260906003204 | 58 | 341 | 3.0 | 6.0 | 0.00 | 0.01 | 0.00 | 69 | 1027.9 |
| 20260906002704 | 57 | 295 | 3.0 | 6.0 | 0.00 | 0.01 | 0.00 | 69 | 1027.9 |
| 20260906002205 | 57 | 277 | 3.0 | 6.0 | 0.00 | 0.01 | 0.00 | 70 | 1028.0 |
| 20260906001704 | 57 | 298 | 2.0 | 5.0 | 0.00 | 0.01 | 0.00 | 70 | 1027.9 |
| 20260906001205 | 57 | 289 | 2.0 | 3.0 | 0.00 | 0.01 | 0.00 | 71 | 1027.8 |
| 20260906000704 | 57 | 327 | 2.0 | 5.0 | 0.00 | 0.01 | 0.00 | 71 | 1027.8 |
| 20260906000205 | 57 | 350 | 1.0 | 3.0 | 0.00 | 0.01 | 0.00 | 70 | 1027.9 |
| 20260905235205 | 58 | 281 | 2.0 | 3.0 | 0.00 | 0.01 | 0.00 | 69 | 1027.6 |
| 20260905234206 | 58 | 271 | 2.0 | 3.0 | 0.00 | 0.01 | 0.00 | 68 | 1027.4 |
| 20260905233704 | 58 | 264 | 2.0 | 3.0 | 0.00 | 0.01 | 0.00 | 68 | 1027.4 |
| 20260905233204 | 59 | 272 | 2.0 | 3.0 | 0.00 | 0.01 | 0.00 | 68 | 1027.3 |
| 20260905232206 | 59 | 288 | 2.0 | 5.0 | 0.00 | 0.01 | 0.00 | 68 | 1027.2 |
| 20260905231704 | 59 | 264 | 2.0 | 3.0 | 0.00 | 0.01 | 0.00 | 67 | 1027.5 |
| 20260905231204 | 60 | 267 | 1.0 | 2.0 | 0.00 | 0.01 | 0.00 | 67 | 1027.3 |
| 20260905230203 | 60 | 279 | 3.0 | 5.0 | 0.00 | 0.01 | 0.00 | 67 | 1027.4 |
| 20260905225704 | 60 | 254 | 2.0 | 5.0 | 0.00 | 0.01 | 0.00 | 67 | 1027.4 |
| 20260905225204 | 60 | 276 | 3.0 | 5.0 | 0.00 | 0.01 | 0.00 | 67 | 1027.4 |
| 20260905224704 | 60 | 295 | 3.0 | 5.0 | 0.00 | 0.01 | 0.00 | 67 | 1027.3 |
| 20260905224204 | 60 | 339 | 4.0 | 8.0 | 0.00 | 0.01 | 0.00 | 68 | 1027.1 |
| 20260905223704 | 60 | 305 | 2.0 | 5.0 | 0.00 | 0.01 | 0.00 | 68 | 1027.1 |
| 20260905222704 | 61 | 12 | 1.0 | 3.0 | 0.00 | 0.01 | 0.00 | 67 | 1027.2 |
| 20260905222205 | 61 | 7 | 1.0 | 2.0 | 0.00 | 0.01 | 0.00 | 66 | 1027.1 |
| 20260905221703 | 61 | 256 | 1.0 | 2.0 | 0.00 | 0.01 | 0.00 | 65 | 1027.3 |
| 20260905221206 | 61 | 316 | 1.0 | 3.0 | 0.00 | 0.01 | 0.00 | 64 | 1027.0 |
| 20260905220704 | 61 | 310 | 1.0 | 3.0 | 0.00 | 0.01 | 0.00 | 63 | 1027.0 |
| 20260905220204 | 62 | 272 | 2.0 | 3.0 | 0.00 | 0.01 | 0.00 | 63 | 1027.2 |
| 20260905215704 | 62 | 286 | 1.0 | 3.0 | 0.00 | 0.01 | 0.01 | 62 | 1027.1 |
| 20260905215204 | 62 | 264 | 2.0 | 5.0 | 0.00 | 0.01 | 0.01 | 62 | 1027.0 |
| 20260905214204 | 63 | 278 | 1.0 | 3.0 | 0.00 | 0.01 | 0.01 | 61 | 1027.0 |
| 20260905213704 | 63 | 265 | 1.0 | 3.0 | 0.00 | 0.01 | 0.01 | 60 | 1026.7 |
| 20260905212704 | 64 | 277 | 2.0 | 3.0 | 0.00 | 0.01 | 0.01 | 60 | 1026.9 |
| 20260905212204 | 64 | 283 | 2.0 | 3.0 | 0.00 | 0.01 | 0.01 | 59 | 1026.7 |
| 20260905211706 | 64 | 298 | 1.0 | 3.0 | 0.00 | 0.01 | 0.01 | 59 | 1026.5 |
| 20260905210705 | 65 | 286 | 1.0 | 2.0 | 0.00 | 0.01 | 0.01 | 59 | 1026.5 |
| 20260905205706 | 65 | 342 | 2.0 | 3.0 | 0.00 | 0.01 | 0.01 | 58 | 1026.2 |
| 20260905205204 | 65 | 349 | 3.0 | 5.0 | 0.00 | 0.01 | 0.01 | 58 | 1026.2 |
| 20260905204704 | 65 | 344 | 3.0 | 7.0 | 0.00 | 0.01 | 0.01 | 58 | 1026.1 |
| 20260905204204 | 65 | 359 | 2.0 | 5.0 | 0.00 | 0.01 | 0.01 | 57 | 1026.0 |
| 20260905203704 | 65 | 348 | 2.0 | 3.0 | 0.00 | 0.01 | 0.01 | 57 | 1026.0 |
| 20260905203204 | 65 | 315 | 2.0 | 7.0 | 0.00 | 0.01 | 0.01 | 57 | 1025.7 |
| 20260905202204 | 65 | 0 | 3.0 | 7.0 | 0.00 | 0.01 | 0.01 | 56 | 1025.9 |
| 20260905201705 | 65 | 292 | 5.0 | 7.0 | 0.00 | 0.01 | 0.01 | 56 | 1025.7 |
| 20260905201204 | 65 | 286 | 3.0 | 5.0 | 0.00 | 0.01 | 0.01 | 55 | 1025.6 |
| 20260905200704 | 65 | 283 | 3.0 | 5.0 | 0.00 | 0.01 | 0.01 | 55 | 1025.4 |
| 20260905195704 | 65 | 266 | 2.0 | 5.0 | 0.00 | 0.01 | 0.01 | 54 | 1025.6 |
| 20260905195204 | 66 | 264 | 2.0 | 3.0 | 0.00 | 0.01 | 0.01 | 54 | 1025.4 |
| 20260905193706 | 66 | 263 | 2.0 | 3.0 | 0.00 | 0.01 | 0.01 | 53 | 1025.4 |
| 20260905192704 | 67 | 275 | 2.0 | 5.0 | 0.00 | 0.01 | 0.01 | 52 | 1025.2 |
| 20260905192203 | 67 | 273 | 3.0 | 5.0 | 0.00 | 0.01 | 0.01 | 52 | 1025.2 |
| 20260905191704 | 67 | 278 | 3.0 | 5.0 | 0.00 | 0.01 | 0.01 | 52 | 1025.0 |
| 20260905191203 | 67 | 278 | 3.0 | 5.0 | 0.00 | 0.01 | 0.01 | 52 | 1025.2 |
| 20260905190704 | 67 | 274 | 3.0 | 5.0 | 0.00 | 0.01 | 0.01 | 52 | 1025.0 |
| 20260905190204 | 67 | 274 | 2.0 | 3.0 | 0.00 | 0.01 | 0.01 | 52 | 1025.0 |
| 20260905185703 | 67 | 274 | 2.0 | 3.0 | 0.00 | 0.01 | 0.01 | 52 | 1025.0 |
| 20260905185204 | 67 | 267 | 2.0 | 5.0 | 0.00 | 0.01 | 0.01 | 51 | 1025.0 |
| 20260905184705 | 67 | 249 | 2.0 | 3.0 | 0.00 | 0.01 | 0.01 | 51 | 1024.9 |
| 20260905184204 | 67 | 262 | 2.0 | 3.0 | 0.00 | 0.01 | 0.01 | 51 | 1024.8 |
| 20260905183706 | 67 | 270 | 2.0 | 3.0 | 0.00 | 0.01 | 0.01 | 50 | 1024.9 |
| 20260905183206 | 68 | 279 | 2.0 | 3.0 | 0.00 | 0.01 | 0.01 | 49 | 1024.7 |
| 20260905182707 | 68 | 249 | 2.0 | 3.0 | 0.00 | 0.01 | 0.01 | 49 | 1024.8 |
| 20260905182208 | 68 | 257 | 2.0 | 3.0 | 0.00 | 0.01 | 0.01 | 48 | 1024.9 |
| 20260905181706 | 69 | 271 | 2.0 | 5.0 | 0.00 | 0.01 | 0.01 | 48 | 1024.8 |
| 20260905180708 | 70 | 277 | 3.0 | 5.0 | 0.00 | 0.01 | 0.01 | 47 | 1024.4 |
| 20260905180206 | 70 | 272 | 3.0 | 6.0 | 0.00 | 0.01 | 0.01 | 47 | 1024.2 |
| 20260905175706 | 70 | 289 | 3.0 | 6.0 | 0.00 | 0.01 | 0.01 | 47 | 1024.3 |
| 20260905175206 | 71 | 280 | 4.0 | 6.0 | 0.00 | 0.01 | 0.01 | 46 | 1024.0 |
| 20260905174707 | 71 | 295 | 5.0 | 8.0 | 0.00 | 0.01 | 0.01 | 46 | 1024.0 |
| 20260905174206 | 71 | 279 | 5.0 | 9.0 | 0.00 | 0.01 | 0.01 | 45 | 1024.0 |
| 20260905173706 | 72 | 282 | 5.0 | 9.0 | 0.00 | 0.01 | 0.01 | 45 | 1024.0 |
| 20260905172207 | 73 | 292 | 6.0 | 12.0 | 0.00 | 0.01 | 0.01 | 44 | 1023.9 |
| 20260905171706 | 73 | 280 | 7.0 | 9.0 | 0.00 | 0.01 | 0.01 | 43 | 1023.8 |
| 20260905171207 | 73 | 294 | 6.0 | 13.0 | 0.00 | 0.01 | 0.01 | 43 | 1023.7 |
| 20260905170706 | 74 | 295 | 7.0 | 14.0 | 0.00 | 0.01 | 0.01 | 43 | 1023.9 |
| 20260905170207 | 74 | 285 | 5.0 | 9.0 | 0.00 | 0.01 | 0.01 | 42 | 1023.7 |
| 20260905165706 | 74 | 290 | 6.0 | 15.0 | 0.00 | 0.01 | 0.01 | 41 | 1023.6 |
| 20260905164207 | 76 | 284 | 9.0 | 16.0 | 0.00 | 0.01 | 0.01 | 40 | 1023.5 |
| 20260905163708 | 76 | 288 | 9.0 | 14.0 | 0.00 | 0.01 | 0.01 | 40 | 1023.4 |
| 20260905163206 | 76 | 301 | 9.0 | 15.0 | 0.00 | 0.01 | 0.01 | 40 | 1023.4 |
| 20260905162706 | 76 | 290 | 8.0 | 15.0 | 0.00 | 0.01 | 0.01 | 40 | 1023.3 |
| 20260905162207 | 77 | 287 | 7.0 | 15.0 | 0.00 | 0.01 | 0.01 | 40 | 1023.1 |
| 20260905161708 | 77 | 292 | 8.0 | 15.0 | 0.00 | 0.01 | 0.01 | 40 | 1023.1 |
| 20260905160706 | 77 | 288 | 11.0 | 22.0 | 0.00 | 0.01 | 0.01 | 40 | 1023.3 |
| 20260905160206 | 77 | 291 | 13.0 | 18.0 | 0.00 | 0.01 | 0.01 | 39 | 1023.0 |
| 20260905155706 | 77 | 303 | 13.0 | 22.0 | 0.00 | 0.01 | 0.01 | 39 | 1022.9 |
| 20260905154707 | 77 | 291 | 13.0 | 23.0 | 0.00 | 0.01 | 0.01 | 40 | 1022.8 |
| 20260905154208 | 78 | 304 | 13.0 | 21.0 | 0.00 | 0.01 | 0.01 | 40 | 1022.9 |
| 20260905153706 | 78 | 280 | 11.0 | 22.0 | 0.00 | 0.01 | 0.01 | 41 | 1022.6 |
| 20260905153208 | 79 | 282 | 9.0 | 18.0 | 0.00 | 0.01 | 0.01 | 41 | 1022.7 |
| 20260905151706 | 80 | 282 | 8.0 | 18.0 | 0.00 | 0.01 | 0.01 | 39 | 1022.4 |
| 20260905151206 | 80 | 297 | 9.0 | 21.0 | 0.00 | 0.01 | 0.01 | 39 | 1022.4 |
| 20260905150706 | 80 | 288 | 7.0 | 17.0 | 0.00 | 0.01 | 0.01 | 39 | 1022.5 |
| 20260905145706 | 80 | 278 | 9.0 | 16.0 | 0.00 | 0.01 | 0.01 | 40 | 1022.3 |
| 20260905145206 | 80 | 281 | 10.0 | 20.0 | 0.00 | 0.01 | 0.01 | 39 | 1022.4 |
| 20260905143707 | 80 | 279 | 5.0 | 16.0 | 0.00 | 0.01 | 0.01 | 39 | 1022.5 |
| 20260905143207 | 80 | 304 | 8.0 | 17.0 | 0.00 | 0.01 | 0.01 | 39 | 1022.5 |
| 20260905142207 | 79 | 288 | 14.0 | 23.0 | 0.00 | 0.01 | 0.01 | 38 | 1022.5 |
| 20260905141706 | 79 | 286 | 9.0 | 17.0 | 0.00 | 0.01 | 0.01 | 39 | 1022.4 |
| 20260905141207 | 79 | 291 | 15.0 | 21.0 | 0.00 | 0.01 | 0.01 | 38 | 1022.4 |
| 20260905140207 | 80 | 297 | 12.0 | 18.0 | 0.00 | 0.01 | 0.01 | 38 | 1022.5 |
| 20260905135706 | 80 | 286 | 12.0 | 25.0 | 0.00 | 0.01 | 0.01 | 38 | 1022.7 |
| 20260905135206 | 80 | 303 | 10.0 | 22.0 | 0.00 | 0.01 | 0.01 | 38 | 1022.7 |
| 20260905133707 | 80 | 285 | 12.0 | 21.0 | 0.00 | 0.01 | 0.01 | 38 | 1022.8 |
| 20260905133206 | 80 | 284 | 9.0 | 21.0 | 0.00 | 0.01 | 0.01 | 40 | 1022.8 |
| 20260905132707 | 80 | 278 | 10.0 | 20.0 | 0.00 | 0.01 | 0.01 | 39 | 1022.6 |
| 20260905132207 | 80 | 288 | 11.0 | 18.0 | 0.00 | 0.01 | 0.01 | 39 | 1022.6 |
| 20260905131707 | 79 | 292 | 7.0 | 18.0 | 0.00 | 0.01 | 0.01 | 40 | 1022.7 |
| 20260905131207 | 79 | 293 | 11.0 | 21.0 | 0.00 | 0.01 | 0.01 | 40 | 1022.7 |
| 20260905125707 | 79 | 255 | 9.0 | 17.0 | 0.00 | 0.01 | 0.01 | 41 | 1022.7 |
| 20260905125207 | 79 | 275 | 6.0 | 18.0 | 0.00 | 0.01 | 0.01 | 41 | 1022.9 |
| 20260905124706 | 79 | 264 | 9.0 | 24.0 | 0.00 | 0.01 | 0.01 | 40 | 1022.8 |
| 20260905124206 | 79 | 285 | 14.0 | 25.0 | 0.00 | 0.01 | 0.01 | 42 | 1022.9 |
| 20260905123706 | 79 | 283 | 10.0 | 18.0 | 0.00 | 0.01 | 0.01 | 44 | 1022.9 |
| 20260905123208 | 79 | 290 | 11.0 | 20.0 | 0.00 | 0.01 | 0.01 | 44 | 1022.8 |
| 20260905122706 | 79 | 285 | 10.0 | 18.0 | 0.00 | 0.01 | 0.01 | 43 | 1022.7 |
| 20260905122207 | 79 | 270 | 7.0 | 20.0 | 0.00 | 0.01 | 0.01 | 45 | 1022.7 |
| 20260905121706 | 78 | 293 | 9.0 | 18.0 | 0.00 | 0.01 | 0.01 | 46 | 1023.0 |
| 20260905121208 | 78 | 273 | 9.0 | 21.0 | 0.00 | 0.01 | 0.01 | 46 | 1023.0 |
| 20260905120706 | 78 | 281 | 9.0 | 20.0 | 0.00 | 0.01 | 0.01 | 46 | 1022.8 |
| 20260905115706 | 77 | 290 | 6.0 | 18.0 | 0.00 | 0.01 | 0.01 | 48 | 1023.0 |
| 20260905115208 | 77 | 292 | 11.0 | 23.0 | 0.00 | 0.01 | 0.01 | 47 | 1023.1 |
| 20260905114706 | 77 | 281 | 10.0 | 18.0 | 0.00 | 0.01 | 0.01 | 48 | 1023.0 |
| 20260905114208 | 77 | 284 | 12.0 | 17.0 | 0.00 | 0.01 | 0.01 | 48 | 1023.3 |
| 20260905113706 | 76 | 287 | 6.0 | 16.0 | 0.00 | 0.01 | 0.01 | 49 | 1023.2 |
| 20260905113208 | 76 | 289 | 11.0 | 17.0 | 0.00 | 0.01 | 0.01 | 51 | 1023.4 |
| 20260905112706 | 75 | 285 | 7.0 | 15.0 | 0.00 | 0.01 | 0.01 | 51 | 1023.5 |
| 20260905112206 | 75 | 285 | 9.0 | 16.0 | 0.00 | 0.01 | 0.01 | 51 | 1023.4 |
| 20260905111706 | 75 | 280 | 12.0 | 17.0 | 0.00 | 0.01 | 0.01 | 52 | 1023.6 |
| 20260905111208 | 75 | 289 | 9.0 | 17.0 | 0.00 | 0.01 | 0.01 | 53 | 1023.6 |
| 20260905110707 | 74 | 307 | 7.0 | 18.0 | 0.00 | 0.01 | 0.01 | 54 | 1023.7 |
| 20260905105706 | 74 | 287 | 10.0 | 17.0 | 0.00 | 0.01 | 0.01 | 55 | 1023.6 |
| 20260905105206 | 74 | 270 | 10.0 | 17.0 | 0.00 | 0.01 | 0.01 | 56 | 1023.9 |
| 20260905104707 | 74 | 275 | 7.0 | 21.0 | 0.00 | 0.01 | 0.01 | 55 | 1023.7 |
| 20260905103708 | 73 | 285 | 11.0 | 18.0 | 0.00 | 0.01 | 0.01 | 58 | 1024.2 |
| 20260905103206 | 73 | 251 | 7.0 | 17.0 | 0.00 | 0.01 | 0.01 | 61 | 1024.2 |
| 20260905102707 | 72 | 284 | 8.0 | 18.0 | 0.00 | 0.01 | 0.01 | 62 | 1024.1 |